FW1409 Weather Reports


time (UTC)temp
C
wind
direction
speed
KPH
gust
KPH
rain 1hr
cm
rain 24hr
cm
rain mn
cm
humidity
%
barometer
mb
20260510224530 17 91 0.0 3.2 0.00 0.36 0.00 89 1013.6
20260510223029 17 114 1.6 4.8 0.00 0.36 0.00 89 1013.5
20260510221530 17 94 0.0 3.2 0.00 0.36 0.00 89 1013.6
20260510220028 18 111 0.0 0.0 0.00 0.36 0.00 89 1013.6
20260510214527 18 111 0.0 0.0 0.00 0.41 0.00 87 1013.6
20260510213025 18 111 0.0 1.6 0.00 0.41 0.00 85 1013.5
20260510211525 18 111 0.0 1.6 0.00 0.41 0.00 85 1013.3
20260510210022 18 254 0.0 1.6 0.00 0.41 0.00 83 1013.4
20260510204522 18 236 0.0 4.8 0.00 0.46 0.00 82 1013.3
20260510203021 18 137 1.6 6.4 0.00 0.46 0.00 81 1013.3
20260510201519 18 42 1.6 8.0 0.00 0.46 0.00 84 1013.2
20260510200027 17 263 0.0 6.4 0.00 0.46 0.00 85 1013.2
20260510194528 17 74 0.0 6.4 0.00 0.66 0.00 87 1013.3
20260510193017 16 120 1.6 6.4 0.00 0.66 0.00 88 1013.4
20260510191521 16 78 0.0 9.7 0.00 0.66 0.00 87 1013.5
20260510190116 16 143 0.0 4.8 0.00 0.66 0.00 90 1013.5
20260510184515 16 82 1.6 8.0 0.00 0.84 0.00 89 1013.5
20260510183014 17 91 1.6 8.0 0.00 0.84 0.00 87 1013.5
20260510181514 18 122 1.6 4.8 0.00 0.84 0.00 83 1013.4
20260510180011 18 261 1.6 9.7 0.00 0.84 0.00 83 1013.6
20260510174508 17 277 1.6 14.5 0.00 0.89 0.00 84 1013.8
20260510173006 17 240 1.6 6.4 0.00 0.89 0.00 85 1013.8
20260510171503 16 148 0.0 6.4 0.00 0.89 0.00 89 1014.0
20260510170101 16 278 1.6 6.4 0.00 0.89 0.00 90 1013.9
20260510164601 15 290 1.6 8.0 0.00 0.89 0.00 92 1014.0
20260510163116 15 237 1.6 9.7 0.00 0.89 0.00 92 1014.2
20260510161601 15 242 1.6 8.0 0.00 0.89 0.00 92 1014.0
20260510160059 15 61 3.2 8.0 0.00 0.89 0.00 92 1014.2
20260510154549 14 196 0.0 9.7 0.00 0.89 0.00 95 1014.2
20260510153053 13 241 3.2 9.7 0.00 0.89 0.00 95 1014.5
20260510151549 13 263 1.6 6.4 0.00 0.89 0.00 99 1014.6
20260510150042 13 278 0.0 3.2 0.00 0.89 0.00 100 1014.8
20260510144545 12 238 0.0 4.8 0.00 0.89 0.00 100 1014.6
20260510143049 12 89 0.0 4.8 0.00 0.89 0.00 100 1014.4
20260510141539 11 62 0.0 3.2 0.00 0.89 0.00 100 1014.1
20260510140035 11 146 0.0 3.2 0.00 0.89 0.00 100 1014.1
20260510134535 11 149 0.0 3.2 0.00 0.89 0.00 100 1014.1
20260510133036 11 121 0.0 4.8 0.00 0.89 0.00 100 1013.8
20260510131533 11 148 0.0 4.8 0.00 0.89 0.00 100 1013.8
20260510130032 11 144 0.0 1.6 0.00 0.89 0.00 100 1014.0
20260510124528 11 61 0.0 3.2 0.00 0.91 0.00 100 1013.6
20260510123028 11 122 0.0 1.6 0.00 0.91 0.00 100 1013.5
20260510121525 11 172 0.0 1.6 0.00 0.91 0.00 100 1013.4
20260510120025 11 60 1.6 3.2 0.00 0.91 0.00 100 1013.1
20260510114523 11 99 1.6 6.4 0.00 0.91 0.00 100 1013.1
20260510113022 10 154 0.0 6.4 0.00 0.91 0.00 100 1012.8
20260510111522 10 118 0.0 3.2 0.00 0.91 0.00 100 1012.7
20260510110026 10 122 0.0 0.0 0.00 0.91 0.00 100 1013.0
20260510104522 10 122 0.0 0.0 0.00 0.91 0.00 100 1012.7
20260510103020 10 122 0.0 0.0 0.00 0.91 0.00 100 1012.6
20260510101519 10 123 0.0 0.0 0.00 0.91 0.00 100 1012.6
20260510100019 10 123 0.0 0.0 0.00 0.91 0.00 100 1012.5
20260510094519 10 123 0.0 0.0 0.00 0.91 0.00 100 1012.8
20260510093017 10 123 0.0 0.0 0.00 0.91 0.00 100 1012.7
20260510091516 10 123 0.0 0.0 0.00 0.91 0.00 100 1012.8
20260510090018 10 123 0.0 0.0 0.00 0.91 0.00 100 1012.7
20260510084515 10 123 0.0 0.0 0.00 0.91 0.00 100 1013.0
20260510083013 10 115 0.0 1.6 0.00 0.91 0.00 100 1012.9
20260510081531 10 115 0.0 0.0 0.00 0.91 0.00 100 1012.2
20260510080010 10 133 0.0 1.6 0.00 0.91 0.00 100 1012.0
20260510074510 10 133 0.0 0.0 0.00 0.94 0.00 100 1011.8
20260510073013 10 133 0.0 0.0 0.00 0.94 0.00 100 1012.2
20260510071508 10 133 0.0 0.0 0.00 0.94 0.00 100 1012.2
20260510070007 10 133 0.0 0.0 0.00 0.94 0.00 100 1012.2
20260510064506 10 133 0.0 0.0 0.00 0.94 0.00 100 1012.2
20260510063006 10 133 0.0 0.0 0.00 0.94 0.00 100 1012.1
20260510061511 10 131 0.0 0.0 0.00 0.94 0.00 100 1012.0
20260510060005 10 132 0.0 3.2 0.00 0.94 0.00 100 1011.9
20260510054507 11 138 0.0 0.0 0.00 0.94 0.00 100 1012.1
20260510053001 11 138 0.0 1.6 0.00 0.94 0.00 100 1012.2
20260510051503 11 138 0.0 0.0 0.00 0.94 0.00 100 1012.2
20260510050002 11 138 0.0 0.0 0.00 0.94 0.00 100 1012.2
20260510044614 11 138 0.0 1.6 0.00 0.94 0.00 100 1012.3
20260510043101 11 138 0.0 0.0 0.00 0.94 0.00 100 1012.2
20260510041604 11 138 0.0 1.6 0.00 0.94 0.00 100 1012.1
20260510040055 11 105 0.0 0.0 0.00 0.94 0.00 100 1011.9
20260510034558 11 115 0.0 0.0 0.00 0.94 0.94 100 1011.7
20260510033108 11 99 0.0 0.0 0.00 0.94 0.94 100 1011.8
20260510031554 11 99 0.0 0.0 0.00 0.94 0.94 100 1011.9
20260510030111 11 100 0.0 0.0 0.00 0.94 0.94 100 1012.0
20260510024554 11 105 0.0 0.0 0.00 0.94 0.94 100 1012.1
20260510023055 11 103 0.0 1.6 0.00 0.94 0.94 100 1012.0
20260510021553 11 93 0.0 3.2 0.00 0.94 0.94 100 1012.0
20260510020052 11 27 0.0 3.2 0.00 0.94 0.94 100 1012.0
20260510014558 11 49 0.0 4.8 0.00 0.94 0.94 100 1012.1
20260510013051 11 91 0.0 1.6 0.00 0.94 0.94 100 1011.7
20260510011551 11 126 0.0 3.2 0.00 0.94 0.94 100 1011.4
20260510010150 11 131 0.0 4.8 0.00 0.94 0.94 100 1011.4
20260510004549 11 122 0.0 0.0 0.00 0.94 0.94 100 1011.3
20260510003059 11 67 0.0 1.6 0.00 0.94 0.94 100 1011.2
20260510001549 11 323 0.0 0.0 0.00 0.94 0.94 100 1011.2
20260510000054 11 319 0.0 0.0 0.05 0.94 0.94 100 1011.1
20260509234556 12 319 0.0 0.0 0.13 0.94 0.94 100 1011.1
20260509233058 11 30 0.0 0.0 0.18 0.94 0.94 100 1010.9
20260509231552 12 141 0.0 11.3 0.33 0.94 0.94 99 1010.9
20260509230046 12 101 1.6 6.4 0.30 0.89 0.89 99 1011.8